SCP
0 0 0 0 0 0 0 0 0 0 0 0 0 0 0 0 0 0 0 0 0 0 0 0 0 0 0 0 0 0 0 0 0 0 0 0 0 0 0 0 0 0 0
0 0 0 0 0 0 0 0 0 0 0 0 0 0 0 0 0 0 0 0 0 0 0 0 0 0 0 0 0 0 0 0 0 0 0 0 0 0 0 0 0 0 0
0 0 0 0 0 0 0 0 0 0 0 0 0 0 0 0 0 0 0 0 0 0 0 0 0 0 0 0 0 0 0 0 0 0 0 0 0 0 0 0 0 0 0
0 0 0 0 0 0 0 0 0 0 0 0 0 0 0 0 0 0 0 0 0 0 0 0 0 0 0 0 0 0 0 0 0 0 0 0 0 0 0 0 0 0 0
0 0 0 0 0 0 0 0 0 0 0 0 0 0 0 0 0 0 0 0 0 0 0 0 0 0 0 0 0 0 0 0 0 0 0 0 0 0 0 0 0 0 0
0 0 0 0 0 0 0 0 0 0 0 0 0 0 0 0 0 0 0 0 0 0 0 0 0 0 0 0 0 0 0 0 0 0 0 0 0 0 0 0 0 0 0
0 0 0 0 0 0 0 0 0 0 0 0 0 0 0 0 0 0 0 0 0 0 0 0 0 0 0 0 0 0 0 0 0 0 0 0 0 0 0 0 0 0 0
0 0 0 0 0 0 0 0 0 0 0 0 0 0 0 0 0 0 0 0 0 0 0 0 0 0 0 0 0 0 0 0 0 0 0 0 0 0 0 0 0 0 0
0 0 0 0 0 0 0 0 0 0 0 0 0 0 0 0 0 0 0 0 0 0 0 0 0 0 0 0 0 0 0 0 0 0 0 0 0 0 0 0 0 0 0
0 0 0 0 0 0 0 0 0 0 0 0 0 0 0 0 0 0 0 0 0 0 0 0 0 0 0 0 0 0 0 0 0 0 0 0 0 0 0 0 0 0 0
0 0 0 0 0 0 0 0 0 0 0 0 0 0 0 0 0 0 0 0 0 0 0 0 0 0 0 0 0 0 0 0 0 0 0 0 0 0 0 0 0 0 0
0 0 0 0 0 0 0 0 0 0 0 0 0 0 0 0 0 0 0 0 0 0 0 0 0 0 0 0 0 0 0 0 0 0 0 0 0 0 0 0 0 0 0
0 0 0 0 0 0 0 0 0 0 0 0 0 0 0 0 0 0 0 0 0 0 0 0 0 0 0 0 0 0 0 0 0 0 0 0 0 0 0 0 0 0 0
0 0 0 0 0 0 0 0 0 0 0 0 0 0 0 0 0 0 0 0 0 0 0 0 0 0 0 0 0 0 0 0 0 0 0 0 0 0 0 0 0 0 0
0 0 0 0 0 0 0 0 0 0 0 0 0 0 0 0 0 0 0 0 0 0 0 0 0 0 0 0 0 0 0 0 0 0 0 0 0 0 0 0 0 0 0
0 0 0 0 0 0 0 0 0 0 0 0 0 0 0 0 0 0 0 0 0 0 0 0 0 0 0 0 0 0 0 0 0 0 0 0 0 0 0 0 0 0 0
0 0 0 0 0 0 0 0 0 0 0 0 0 0 0 0 0 0 0 0 0 0 0 0 0 0 0 0 0 0 0 0 0 0 0 0 0 0 0 0 0 0 0
0 0 0 0 0 0 0 0 0 0 0 0 0 0 0 0 0 0 0 0 0 0 0 0 0 0 0 0 0 0 0 0 0 0 0 0 0 0 0 0 0 0 0
0 0 0 0 0 0 0 0 0 0 0 0 0 0 0 0 0 0 0 0 0 0 0 0 0 0 0 0 0 0 0 0 0 0 0 0 0 0 0 0 0 0 0
0 0 0 0 0 0 0 0 0 0 0 0 0 0 0 0 0 0 0 0 0 0 0 0 0 0 0 0 0 0 0 0 0 0 0 0 0 0 0 0 0 0 0
0 0 0 0 0 0 0 0 0 0 0 0 0 0 0 0 0 0 0 0 0 0 0 0 0 0 0 0 0 0 0 0 0 0 0 0 0 0 0 0 0 0 0
0 0 0 0 0 0 0 0 0 0 0 0 0 0 0 0 0 0 0 0 0 0 0 0 0 0 0 0 0 0 0 0 0 0 0 0 0 0 0 0 0 0 0
0 0 0 0 0 0 0 0 0 0 0 0 0 0 0 0 0 0 0 0 0 0 0 0 0 0 0 0 0 0 0 0 0 0 0 0 0 0 0 0 0 0 0
0 0 0 0 0 0 0 0 0 0 0 0 0 0 0 0 0 0 0 0 0 0 0 0 0 0 0 0 0 0 0 0 0 0 0 0 0 0 0 0 0 0 0
0 0 0 0 0 0 0 0 0 0 0 0 0 0 0 0 0 0 0 0 0 0 0 0 0 0 0 0 0 0 0 0 0 0 0 0 0 0 0 0 0 0 0
0 0 0 0 0 0 0 0 0 0 0 0 0 0 0 0 0 0 0 0 0 0 0 0 0 0 0 0 0 0 0 0 0 0 0 0 0 0 0 0 0 0 0
Wind_Speed
3 4 8 10 11 11 11 10 10 10 10 10 10 10 10 10 10 10 10 9 10 10 10 10 10 10 10 10 10 10 10 10 10 10 10 10 11 11 11 11 10 6 11
5 5 8 10 11 11 11 10 10 10 9 9 10 10 10 10 10 10 10 10 10 9 9 10 9 10 10 9 9 9 9 9 9 9 9 9 10 10 11 10 10 7 11
5 6 7 10 11 11 10 10 10 9 9 9 9 9 9 9 9 9 9 9 9 9 9 9 9 9 9 9 9 9 9 9 9 9 9 5 5 9 10 10 10 10 10
6 6 6 9 11 11 10 10 9 9 9 9 9 9 9 9 9 9 9 9 9 9 9 9 9 9 8 8 8 8 9 8 8 8 5 4 4 8 9 10 10 10 10
5 5 5 8 10 11 11 10 9 8 8 8 9 9 9 9 9 9 8 9 9 9 9 9 9 9 8 8 8 8 8 8 8 6 4 4 3 7 8 9 9 9 9
4 4 5 8 9 10 10 10 9 9 8 8 8 9 9 9 9 8 8 8 8 8 9 9 8 8 8 8 8 8 8 8 7 4 3 3 2 5 7 8 8 8 8
4 3 4 6 7 9 9 10 9 8 8 7 8 8 8 8 8 8 7 7 7 8 8 8 8 7 7 8 8 7 7 7 4 3 3 2 2 5 6 7 7 7 7
4 4 4 6 7 7 8 8 8 8 8 7 7 7 8 8 8 7 7 7 7 7 8 7 7 7 7 7 7 7 7 6 4 3 3 2 2 4 5 6 6 6 6
4 4 3 3 4 6 6 6 7 7 7 6 7 7 6 6 7 6 6 6 6 7 7 7 7 6 6 7 6 6 6 6 4 2 2 2 2 4 5 5 5 6 6
3 3 3 3 3 3 4 6 6 6 6 6 7 7 6 6 6 6 5 5 6 6 6 6 6 6 6 6 6 6 6 5 3 3 2 2 2 3 4 4 4 5 5
2 2 2 2 3 3 3 4 5 6 6 6 6 7 6 4 4 4 4 5 5 5 6 6 5 6 5 5 5 5 4 2 2 1 1 2 2 2 3 3 3 3 3
2 1 1 2 2 3 2 3 3 3 4 3 3 4 3 3 3 3 4 4 4 4 4 5 5 5 4 3 3 4 2 2 2 1 1 2 2 2 2 2 2 2 2
2 1 0 1 2 3 2 2 2 2 2 3 3 3 3 3 2 2 2 2 2 3 3 3 3 2 2 1 1 1 1 1 1 1 2 3 3 2 1 1 1 1 1
0 0 0 1 1 2 2 2 2 2 2 2 3 3 3 2 2 2 2 1 1 1 2 2 1 2 2 1 1 1 1 1 1 1 1 3 3 2 1 1 1 1 1
0 1 0 1 1 1 2 2 2 2 2 2 2 2 3 2 2 2 1 1 1 1 1 1 1 1 1 1 1 1 0 1 1 1 1 2 3 3 2 1 0 1 1
2 2 1 1 1 1 2 2 2 2 2 3 2 3 3 2 2 2 2 2 1 1 1 1 1 1 0 1 1 1 0 1 1 1 1 2 3 3 2 1 1 1 1
2 2 1 2 1 1 2 2 2 2 3 3 2 3 3 3 3 2 2 1 1 1 1 1 1 1 0 0 0 0 0 1 1 1 1 1 1 2 2 2 2 2 2
2 1 2 1 2 2 2 2 2 3 3 3 2 2 3 3 3 2 2 1 1 2 2 1 1 1 0 0 0 1 1 1 1 1 1 1 1 1 2 2 2 3 2
2 2 2 1 2 2 2 2 2 2 2 2 2 2 2 3 3 3 2 2 2 2 1 1 1 1 1 0 0 1 1 1 1 1 1 1 1 1 1 2 3 3 3
1 1 1 1 0 1 1 1 2 2 1 1 2 2 2 2 3 3 2 2 2 2 1 1 1 1 1 1 0 1 1 1 1 1 1 1 1 1 1 1 2 2 4
1 1 0 1 0 2 1 1 1 1 1 1 1 2 2 2 2 2 2 2 2 2 2 2 2 1 1 1 1 2 2 1 1 1 0 0 1 1 1 1 1 1 2
1 1 0 1 1 2 1 1 1 1 1 1 1 1 1 1 2 2 2 2 2 2 2 2 2 2 1 1 2 1 2 3 2 1 1 0 1 1 1 1 1 1 1
2 1 1 1 1 1 1 2 2 2 2 1 1 1 0 1 2 2 2 2 2 3 3 3 3 3 2 1 1 2 2 2 2 2 1 1 1 1 0 0 1 1 1
2 1 1 0 1 1 2 2 2 2 1 1 1 1 1 1 1 1 2 2 2 2 3 3 3 2 3 2 1 1 1 2 1 2 2 1 1 1 1 1 1 1 1
2 2 1 1 2 1 1 2 2 1 0 1 1 1 1 0 1 1 1 1 2 2 3 3 3 3 3 3 3 2 1 1 1 2 2 2 1 1 1 1 1 1 1
3 3 2 2 2 1 1 1 1 1 1 1 1 1 0 0 0 0 0 1 1 1 2 3 3 3 3 3 3 2 3 2 3 3 3 2 2 2 1 1 1 1 1
Wind_Direction
187 188 181 159 156 153 146 140 134 130 125 121 117 113 110 107 106 106 105 103 102 99 97 93 91 90 88 85 82 80 78 76 75 76 77 82 82 81 79 74 67 62 73
162 172 176 163 156 150 147 142 137 134 129 126 121 118 114 110 108 107 105 103 102 101 98 94 89 89 87 86 85 82 81 79 74 70 68 71 79 81 81 79 77 74 76
147 162 171 164 156 150 146 142 140 139 134 132 127 123 118 113 110 108 107 106 104 102 99 97 93 91 89 86 86 84 84 81 75 68 60 49 66 81 81 80 79 78 78
150 156 163 162 156 152 150 148 144 143 138 135 131 127 123 119 114 109 108 106 105 103 101 98 94 93 88 88 87 85 84 81 75 68 54 44 50 80 82 82 81 79 76
143 147 153 157 157 154 154 153 147 145 143 140 136 131 127 123 118 112 110 108 106 105 103 99 96 94 90 89 86 86 85 80 72 59 49 42 46 81 86 83 82 79 76
134 139 151 154 159 156 155 154 152 150 145 143 140 136 130 125 120 113 111 108 107 108 104 100 95 95 92 90 87 84 78 75 62 54 47 38 43 84 90 88 86 83 79
133 133 143 150 155 153 153 155 152 149 144 142 140 138 134 129 124 119 117 113 110 107 103 100 95 95 95 92 88 83 78 71 60 54 41 34 57 84 90 93 91 89 85
132 130 136 142 141 142 144 148 152 152 147 144 143 139 136 131 128 124 122 120 115 109 105 102 97 95 94 92 88 81 71 63 55 43 32 27 75 87 89 94 96 96 91
107 111 115 127 134 136 135 134 138 141 140 140 138 129 123 120 121 118 121 120 118 114 110 105 100 97 97 92 87 80 70 59 49 26 16 16 64 92 94 92 98 98 92
89 95 100 99 104 116 130 130 124 128 128 125 120 115 111 111 110 106 110 118 120 116 110 105 101 95 93 91 86 75 68 56 48 25 5 10 40 81 89 88 89 90 95
96 86 99 103 103 107 116 124 124 124 122 116 111 108 102 97 98 99 101 111 115 114 111 107 102 92 83 79 76 69 60 52 46 25 353 2 21 59 72 83 82 86 96
176 168 129 132 123 118 122 119 117 117 115 105 103 107 104 101 97 95 96 98 104 107 105 103 96 85 76 62 57 57 54 45 32 359 350 356 1 26 61 74 76 90 103
198 185 179 162 144 135 129 125 119 117 114 113 113 111 109 102 96 85 81 74 75 81 75 77 71 66 69 69 60 51 49 40 21 347 349 358 2 7 30 53 58 78 107
104 249 9 89 135 145 135 137 130 131 126 124 124 121 118 110 103 103 96 84 73 82 91 82 83 74 69 64 71 64 39 16 359 340 339 345 348 342 338 25 38 40 37
230 258 270 80 126 158 148 148 139 144 143 137 130 131 130 134 137 128 123 113 100 95 107 112 109 100 81 59 51 62 25 356 339 338 331 337 332 329 324 338 348 20 9
245 252 235 185 186 160 171 163 158 153 148 139 141 144 139 136 141 144 143 135 126 128 134 137 138 123 102 88 48 41 3 350 358 334 316 332 332 324 322 328 338 336 325
250 252 234 206 195 181 185 179 161 159 151 151 157 156 148 139 146 146 148 150 150 142 141 120 102 93 87 77 54 354 349 339 329 318 321 343 341 332 324 332 336 315 307
267 251 234 209 201 198 188 182 168 159 159 159 154 154 154 148 149 146 153 164 153 143 144 142 143 128 167 181 318 316 329 319 313 313 334 344 349 335 328 344 335 320 311
251 244 221 222 204 200 188 160 144 147 156 157 148 150 159 157 155 154 165 169 149 138 145 162 160 158 181 239 317 320 321 311 304 331 324 333 345 345 345 357 357 346 328
270 254 216 218 250 150 129 112 111 115 131 139 151 157 159 160 157 156 162 161 149 146 155 162 171 145 158 168 353 333 308 294 305 307 298 324 359 13 16 15 8 352 349
9 6 103 152 123 128 122 135 147 165 162 154 147 144 164 161 156 155 157 157 160 170 181 174 163 153 143 123 69 341 324 306 302 299 336 358 26 41 47 36 24 358 340
0 338 291 188 181 173 165 154 155 145 148 146 113 113 143 169 161 166 167 172 174 172 176 178 162 163 161 156 137 100 327 332 332 335 11 31 341 38 46 29 32 356 347
351 316 273 236 163 163 108 103 81 80 70 76 83 121 138 163 163 171 183 179 179 179 192 197 189 179 186 194 165 154 176 237 304 324 338 354 344 341 321 354 1 342 339
319 321 328 353 91 105 116 125 125 141 160 198 175 158 121 122 129 156 189 189 187 191 196 202 199 195 177 190 201 197 191 167 188 301 319 336 342 311 292 293 305 325 324
350 355 3 43 56 58 111 141 146 126 109 95 104 120 118 119 105 125 184 191 201 207 207 200 197 194 194 193 184 173 180 186 189 196 267 301 325 294 280 269 266 269 283
12 15 22 47 51 53 88 115 147 151 131 118 109 154 156 279 9 26 260 220 226 228 222 215 206 200 207 204 194 180 172 176 189 193 226 259 282 290 295 275 249 243 249